Weather reports worldwide

Advertisment
Besancon, France (7288): temperature & dewpoint: 15.08.2017 12:00:00 - 21.08.2017 12:00:00 (CEST)Besancon, France (7288): temperature 5cm: 15.08.2017 12:00:00 - 21.08.2017 12:00:00 (CEST)Besancon, France (7288): temperature -20cm & temperature -100cm: 15.08.2017 12:00:00 - 21.08.2017 12:00:00 (CEST)Besancon, France (7288): wind speed & gusts: 15.08.2017 12:00:00 - 21.08.2017 12:00:00 (CEST)Besancon, France (7288): wind direction: 15.08.2017 12:00:00 - 21.08.2017 12:00:00 (CEST)Besancon, France (7288): reduced air pressure: 15.08.2017 12:00:00 - 21.08.2017 12:00:00 (CEST)Besancon, France (7288): visibility: 15.08.2017 12:00:00 - 21.08.2017 12:00:00 (CEST)Besancon, France (7288): sunshine duration: 15.08.2017 12:00:00 - 21.08.2017 12:00:00 (CEST)Besancon, France (7288): precipitation: 15.08.2017 12:00:00 - 21.08.2017 12:00:00 (CEST)
Date & Time tt [°C] td [°C] tt 5cm [°C] tt -20cm [°C] tt -100cm [°C] ff [km/h] ff [kn] fx [km/h] fx [kn] dd ppp [hPa] vv [km] sd [min] rr [mm]
21.08.2017 12:00:00 19,5 8,2 27,1 20,1 19,8 6 4 14 8 NNW 1023,9 20 23 0,0
21.08.2017 11:00:00 18,0 7,7 22,3 20,1 19,7 7 4 11 6 N 1024,3 20 30 0,0
21.08.2017 10:00:00 17,1 8,2 15,9 20,2 19,7 0 0 5 3 N 1024,5 20 22 0,0
21.08.2017 09:00:00 12,9 7,1 8,8 20,3 19,8 0 0 4 2 N 1025,1 20 60 0,0
21.08.2017 08:00:00 10,6 7,1 8,2 20,5 19,8 0 0 4 2 N 1024,8 20 23 0,0
21.08.2017 07:00:00 10,3 7,0 6,6 20,6 19,7 0 0 5 3 N 1024,8 - 0 0,0
21.08.2017 06:00:00 10,2 6,9 7,0 20,8 19,8 3 2 5 3 NNE 1024,6 - 0 0,0
21.08.2017 05:00:00 10,0 6,9 5,8 20,9 19,8 4 2 5 3 NNE 1025,1 - 0 0,0
21.08.2017 04:00:00 10,0 6,7 6,1 21,0 19,8 0 0 5 3 N 1025,2 - 0 0,0
21.08.2017 03:00:00 11,0 6,9 6,2 21,2 19,8 2 1 5 3 NNE 1025,3 - 0 0,0
21.08.2017 02:00:00 11,5 6,6 6,5 21,3 19,7 2 1 5 3 NNE 1025,6 - 0 0,0
21.08.2017 01:00:00 12,4 6,7 7,1 21,4 19,8 0 0 0 0 N 1026,0 - 0 0,0
21.08.2017 00:00:00 13,1 6,2 7,7 21,5 19,8 0 0 7 4 N 1025,8 - 0 0,0
20.08.2017 23:00:00 14,3 6,4 8,6 21,6 19,8 4 2 16 8 N 1025,7 - 0 0,0
20.08.2017 22:00:00 14,4 6,5 9,1 21,6 19,8 2 1 9 5 N 1025,2 - 0 0,0
20.08.2017 21:00:00 17,5 6,4 12,9 21,6 19,8 6 3 12 6 N 1024,7 - 22 0,0
20.08.2017 20:00:00 20,1 5,7 19,2 21,5 19,8 6 4 17 9 N 1023,8 - 50 0,0
20.08.2017 19:00:00 21,6 5,1 25,1 21,4 19,8 6 4 22 12 NNW 1023,7 - 60 0,0
20.08.2017 18:00:00 21,7 5,6 27,6 21,3 19,8 11 6 27 15 N 1024,0 - 60 0,0
20.08.2017 17:00:00 21,9 5,3 27,6 21,1 19,8 8 5 25 14 N 1024,1 - 58 0,0
20.08.2017 16:00:00 21,4 5,3 27,8 21,0 19,8 11 6 21 11 N 1024,2 30 60 0,0
20.08.2017 15:00:00 21,3 8,2 22,7 20,8 19,8 11 6 22 12 NNW 1024,5 30 43 0,0
20.08.2017 14:00:00 20,1 8,4 23,8 20,8 19,8 9 5 22 12 N 1024,6 30 39 0,0
20.08.2017 13:00:00 20,2 10,3 23,7 20,7 19,8 6 3 20 11 NW 1024,7 27 42 0,0
20.08.2017 12:00:00 18,8 8,2 26,0 20,7 19,8 6 4 18 10 NW 1025,3 27 53 0,0
20.08.2017 11:00:00 17,8 9,9 27,5 20,8 19,8 5 3 14 7 WNW 1025,5 27 60 0,0
20.08.2017 10:00:00 16,5 10,1 17,6 20,9 19,8 4 2 12 7 W 1025,4 25 60 0,0
20.08.2017 09:00:00 13,5 9,3 10,0 21,0 19,8 0 0 4 2 N 1025,4 25 60 0,0
20.08.2017 08:00:00 10,7 8,8 7,2 21,2 19,8 2 1 4 2 N 1025,2 20 28 0,0
20.08.2017 07:00:00 10,6 8,5 6,7 21,3 19,8 3 1 4 2 NNE 1025,0 15 0 0,0
20.08.2017 06:00:00 11,6 8,4 8,0 21,4 19,8 0 0 3 2 N 1024,4 15 0 0,0
20.08.2017 05:00:00 12,2 8,7 10,4 21,5 19,8 0 0 3 1 N 1024,3 - 0 0,0
20.08.2017 04:00:00 12,7 8,4 11,1 21,7 19,8 0 0 4 2 N 1024,1 - 0 0,0
20.08.2017 03:00:00 12,7 8,0 11,1 21,8 19,8 2 1 4 2 NNE 1024,0 - 0 0,0
20.08.2017 02:00:00 12,4 7,9 9,7 21,9 19,8 0 0 2 1 N 1024,2 - 0 0,0
20.08.2017 01:00:00 12,6 7,5 9,5 22,1 19,8 0 0 3 1 N 1024,3 - 0 0,0
20.08.2017 00:00:00 13,0 7,0 8,5 22,2 19,8 0 0 3 1 N 1024,0 - 0 0,0
19.08.2017 23:00:00 13,5 7,0 8,4 22,3 19,7 0 0 2 1 N 1023,7 - 0 0,0
19.08.2017 22:00:00 15,3 6,6 10,1 22,3 19,7 0 0 13 7 N 1023,3 - 0 0,0
19.08.2017 21:00:00 17,6 6,1 14,5 22,4 19,8 8 5 19 10 NNW 1022,5 - 10 0,0
19.08.2017 20:00:00 19,9 5,9 19,2 22,3 19,8 8 4 18 10 NNW 1021,5 - 50 0,0
19.08.2017 19:00:00 20,6 6,2 21,8 22,3 19,8 8 5 26 14 NW 1021,0 - 54 0,0
19.08.2017 18:00:00 21,2 7,1 23,8 22,2 19,8 10 6 25 13 NW 1020,9 - 57 0,0
19.08.2017 17:00:00 22,1 7,9 23,7 22,0 19,8 8 5 23 13 NNW 1020,5 - 42 0,0
19.08.2017 16:00:00 21,5 9,4 25,0 21,9 19,8 9 5 25 14 NW 1020,5 30 38 0,0
19.08.2017 15:00:00 21,5 10,0 25,2 21,7 19,7 10 5 23 12 NW 1020,6 30 36 0,0
19.08.2017 14:00:00 20,4 10,8 27,6 21,6 19,8 11 6 27 14 WNW 1021,0 30 44 0,0
19.08.2017 13:00:00 21,1 10,6 24,1 21,6 19,7 6 4 16 9 SW 1020,9 30 50 0,0
19.08.2017 12:00:00 19,1 9,6 21,7 21,6 19,8 7 4 21 11 W 1021,1 - 46 0,0
19.08.2017 11:00:00 17,8 12,5 21,3 21,6 19,8 10 6 22 12 NW 1021,4 27 31 0,0
19.08.2017 10:00:00 17,2 13,3 17,9 21,7 19,8 8 4 16 8 W 1021,4 17 28 0,0
19.08.2017 09:00:00 16,5 13,6 17,2 21,8 19,7 8 5 19 10 W 1021,2 9 17 0,0
19.08.2017 08:00:00 16,0 14,2 15,6 21,8 19,7 6 4 16 9 SW 1020,6 7 1 0,0
19.08.2017 07:00:00 15,9 13,9 15,2 21,9 19,7 5 3 16 8 SW 1020,1 6 0 0,0
19.08.2017 06:00:00 16,1 13,6 15,2 22,0 19,7 7 4 19 11 SW 1019,7 7 0 0,0
19.08.2017 05:00:00 16,7 13,8 15,7 22,1 19,7 10 5 21 12 SSW 1019,3 - 0 0,0
19.08.2017 04:00:00 16,8 14,3 15,5 22,2 19,7 7 4 19 11 SSW 1019,4 - 0 0,0
19.08.2017 03:00:00 16,4 14,6 15,0 22,3 19,7 4 2 11 6 SSW 1019,4 - 0 0,0
19.08.2017 02:00:00 16,3 14,7 14,3 22,4 19,7 0 0 7 4 N 1019,7 - 0 0,0
19.08.2017 01:00:00 16,4 14,8 14,6 22,5 19,7 3 1 20 11 S 1019,7 - 0 0,0
19.08.2017 00:00:00 17,1 15,3 16,5 22,5 19,7 10 5 21 11 SSW 1019,4 - 0 0,2
18.08.2017 23:00:00 17,2 15,4 15,8 22,6 19,7 4 2 16 8 SSW 1019,2 - 0 0,0
18.08.2017 22:00:00 17,0 15,9 14,7 22,6 19,7 3 2 16 8 SSW 1018,9 - 0 0,0
18.08.2017 21:00:00 17,8 15,6 17,1 22,7 19,7 8 4 23 13 SW 1018,9 - 0 0,2
18.08.2017 20:00:00 18,6 16,9 18,4 22,7 19,7 5 3 13 7 SW 1018,2 - 2 0,0
18.08.2017 19:00:00 18,5 16,8 17,8 22,7 19,7 2 1 5 3 S 1017,4 - 0 0,4
18.08.2017 18:00:00 18,2 16,0 17,7 22,7 19,7 4 2 29 16 WSW 1018,3 - 0 0,2
18.08.2017 17:00:00 19,2 15,5 17,9 22,6 19,7 14 8 47 25 NW 1016,7 10 0 5,7
18.08.2017 16:00:00 25,3 15,6 25,3 22,4 19,7 14 7 29 16 W 1014,2 30 5 0,0
18.08.2017 15:00:00 26,0 15,1 27,0 22,3 19,7 9 5 23 13 WSW 1013,7 30 1 0,0
18.08.2017 14:00:00 27,3 15,6 31,4 22,1 19,7 13 7 29 16 W 1013,6 30 40 0,0
18.08.2017 13:00:00 27,2 15,2 38,0 22,0 19,7 11 6 30 16 SW 1013,9 30 60 0,0
18.08.2017 12:00:00 25,8 15,2 32,9 21,9 19,7 8 4 18 10 SSW 1014,6 30 60 0,0
18.08.2017 11:00:00 24,6 15,5 34,4 22,0 19,7 5 3 14 8 W 1015,6 25 60 0,0
18.08.2017 10:00:00 23,4 14,9 21,5 22,1 19,7 3 1 8 5 SSW 1016,1 25 60 0,0
18.08.2017 09:00:00 18,9 14,4 15,6 22,2 19,7 0 0 3 2 N 1016,8 25 60 0,0
18.08.2017 08:00:00 16,8 13,7 15,1 22,3 19,7 0 0 2 1 N 1017,6 20 18 0,0
18.08.2017 07:00:00 16,3 13,6 13,8 22,4 19,7 0 0 3 1 N 1017,8 - 0 0,0
18.08.2017 06:00:00 16,1 13,2 13,7 22,5 19,7 0 0 3 2 N 1017,6 20 0 0,0
18.08.2017 05:00:00 15,6 12,9 12,1 22,7 19,7 0 0 4 2 N 1018,0 - 0 0,0
18.08.2017 04:00:00 16,0 13,1 12,5 22,8 19,7 0 0 4 2 N 1018,1 - 0 0,0
18.08.2017 03:00:00 16,5 13,0 12,6 22,9 19,6 0 0 4 2 N 1018,0 - 0 0,0
18.08.2017 02:00:00 17,4 13,3 13,4 23,0 19,7 0 0 3 2 N 1018,1 - 0 0,0
18.08.2017 01:00:00 17,7 13,4 13,6 23,1 19,6 2 1 5 3 NNE 1018,4 - 0 0,0
18.08.2017 00:00:00 18,7 13,5 14,2 23,2 19,6 0 0 4 2 N 1018,3 - 0 0,0
17.08.2017 23:00:00 20,1 13,5 15,6 23,2 19,6 0 0 3 2 N 1018,0 - 0 0,0
17.08.2017 22:00:00 21,9 13,3 16,3 23,2 19,6 0 0 5 3 N 1017,7 - 0 0,0
17.08.2017 21:00:00 24,0 12,6 18,7 23,2 19,6 3 1 10 6 SSW 1017,5 - 9 0,0
17.08.2017 20:00:00 26,7 12,7 25,1 23,1 19,6 5 3 22 12 SW 1017,2 - 35 0,0
17.08.2017 19:00:00 27,7 12,1 28,3 23,0 19,6 8 4 21 11 SW 1017,2 - 60 0,0
17.08.2017 18:00:00 28,4 12,7 29,1 22,8 19,6 8 4 22 12 SW 1017,6 - 40 0,0
17.08.2017 17:00:00 27,5 13,1 29,5 22,6 19,6 7 4 25 14 SW 1017,6 30 46 0,0
17.08.2017 16:00:00 28,2 13,7 33,8 22,4 19,6 10 6 23 12 SW 1017,6 30 60 0,0
17.08.2017 15:00:00 27,2 13,9 34,2 22,2 19,6 10 5 29 15 SW 1018,1 30 56 0,0
17.08.2017 14:00:00 26,8 14,2 32,5 22,1 19,6 11 6 26 14 WSW 1018,6 30 56 0,0
17.08.2017 13:00:00 25,7 14,2 30,4 21,9 19,6 7 4 21 11 SW 1018,9 30 49 0,0
17.08.2017 12:00:00 25,5 14,0 33,2 21,9 19,6 8 4 16 9 WSW 1019,4 25 60 0,0
17.08.2017 11:00:00 24,0 14,7 27,1 21,9 19,6 6 3 15 8 WSW 1019,7 20 50 0,0
17.08.2017 10:00:00 22,7 15,3 24,8 21,9 19,6 6 3 12 7 WSW 1019,9 - 49 0,0
17.08.2017 09:00:00 20,4 15,6 19,4 22,0 19,6 3 2 8 4 SSW 1020,0 18 4 0,0
17.08.2017 08:00:00 19,3 15,6 16,4 22,1 19,6 0 0 5 3 N 1019,9 18 3 0,0
17.08.2017 07:00:00 18,6 15,7 16,4 22,1 19,6 0 0 5 3 N 1019,6 15 0 0,0
17.08.2017 06:00:00 18,3 15,7 16,0 22,3 19,6 0 0 3 2 N 1019,5 10 0 0,0
17.08.2017 05:00:00 18,0 16,0 14,5 22,3 19,6 0 0 3 2 N 1019,1 - 0 0,0
17.08.2017 04:00:00 18,4 16,6 14,7 22,4 19,6 0 0 4 2 N 1019,2 - 0 0,0
17.08.2017 03:00:00 18,1 16,3 14,6 22,5 19,6 2 1 4 2 N 1019,2 - 0 0,0
17.08.2017 02:00:00 18,9 16,5 16,0 22,5 19,6 2 1 5 3 NE 1019,6 - 0 0,0
17.08.2017 01:00:00 19,1 16,3 15,9 22,6 19,6 0 0 3 2 N 1019,6 - 0 0,0
17.08.2017 00:00:00 19,7 16,7 16,1 22,6 19,6 3 2 5 3 NNE 1019,7 - 0 0,0
16.08.2017 23:00:00 20,8 17,0 16,8 22,6 19,6 2 1 4 2 N 1019,3 - 0 0,0
16.08.2017 22:00:00 22,1 16,4 19,0 22,7 19,6 0 0 3 1 N 1019,3 - 0 0,0
16.08.2017 21:00:00 23,0 15,8 20,3 22,6 19,6 0 0 0 0 N 1019,0 - 0 0,0
16.08.2017 20:00:00 24,4 16,1 23,7 22,6 19,6 0 0 6 4 N 1018,6 - 1 0,0
16.08.2017 19:00:00 24,9 15,8 24,9 22,5 19,6 3 2 8 4 NNW 1018,5 - 0 0,0
16.08.2017 18:00:00 25,7 15,4 27,0 22,3 19,6 0 0 11 6 N 1018,6 - 7 0,0
16.08.2017 17:00:00 25,9 16,2 29,8 22,1 19,6 4 2 11 6 NW 1018,7 25 13 0,0
16.08.2017 16:00:00 26,0 16,0 30,8 21,9 19,5 5 3 14 8 W 1018,8 25 29 0,0
16.08.2017 15:00:00 25,8 16,4 30,2 21,7 19,5 7 4 19 11 W 1019,3 - 37 0,0
16.08.2017 14:00:00 25,6 16,2 34,9 21,6 19,6 6 3 15 8 WNW 1019,4 25 57 0,0
16.08.2017 13:00:00 25,4 16,5 36,2 21,5 19,6 2 1 13 7 NW 1019,4 - 60 0,0
16.08.2017 12:00:00 23,9 17,4 28,9 21,5 19,5 6 3 11 6 NW 1020,2 25 55 0,0
16.08.2017 11:00:00 22,0 16,7 27,3 21,5 19,6 4 2 15 8 W 1020,9 20 36 0,0
16.08.2017 10:00:00 21,5 16,5 21,5 21,6 19,6 5 3 16 9 WSW 1020,6 18 60 0,0
16.08.2017 09:00:00 18,0 16,2 16,1 21,7 19,5 3 1 8 4 SSW 1021,1 15 60 0,0
16.08.2017 08:00:00 16,0 15,2 13,9 21,8 19,6 0 0 4 2 N 1021,3 15 16 0,0
16.08.2017 07:00:00 15,6 14,8 13,7 21,9 19,5 2 1 6 4 N 1021,3 - 0 0,0
16.08.2017 06:00:00 15,8 15,0 12,9 22,0 19,6 0 0 5 3 N 1021,0 15 0 0,0
16.08.2017 05:00:00 15,8 15,0 12,8 22,1 19,5 3 2 7 4 NNE 1021,2 - 0 0,0
16.08.2017 04:00:00 16,5 15,7 12,9 22,2 19,5 0 0 3 2 N 1020,9 - 0 0,0
16.08.2017 03:00:00 16,8 15,8 13,4 22,3 19,5 0 0 5 3 N 1020,9 - 0 0,0
16.08.2017 02:00:00 17,3 16,2 14,6 22,3 19,5 0 0 4 2 N 1020,6 - 0 0,0
16.08.2017 01:00:00 18,0 16,5 16,4 22,4 19,5 0 0 4 2 N 1020,6 - 0 0,0
16.08.2017 00:00:00 18,4 16,6 17,3 22,4 19,5 0 0 5 3 N 1020,5 - 0 0,2
15.08.2017 23:00:00 18,8 16,0 17,6 22,4 19,5 0 0 10 5 N 1020,3 - 0 0,6
15.08.2017 22:00:00 20,1 16,1 18,5 22,4 19,5 0 0 6 3 N 1021,0 - 0 1,0
15.08.2017 21:00:00 23,0 14,0 18,7 22,4 19,5 5 3 13 7 NW 1019,4 - 0 0,0
15.08.2017 20:00:00 24,3 13,5 22,0 22,4 19,5 0 0 6 3 N 1018,3 - 0 0,0
15.08.2017 19:00:00 25,4 11,9 25,3 22,3 19,5 0 0 6 3 N 1018,0 - 0 0,0
15.08.2017 18:00:00 26,0 12,1 26,3 22,2 19,5 2 1 11 6 WSW 1018,0 - 11 0,0
15.08.2017 17:00:00 27,5 13,8 33,1 22,0 19,5 5 3 25 13 NW 1018,1 30 60 0,0
15.08.2017 16:00:00 26,4 12,8 23,8 21,9 19,5 12 6 26 14 NW 1018,3 30 13 0,0
15.08.2017 15:00:00 26,6 10,7 24,3 21,7 19,5 7 4 24 13 W 1018,2 25 13 0,0
15.08.2017 14:00:00 29,3 11,4 34,1 21,5 19,5 9 5 25 13 SW 1017,3 30 34 0,0
15.08.2017 13:00:00 28,8 11,4 34,7 21,5 19,5 10 6 25 14 SW 1017,1 30 44 0,0
15.08.2017 12:00:00 28,2 12,1 33,1 21,4 19,5 13 7 32 17 SW 1017,3 30 60 0,0

tt = temperature
td = dewpoint
tt 5cm = temperature 5cm
tt -20cm = temperature -20cm
tt -100cm = temperature -100cm
ff = wind speed
fx = gusts
dd = wind direction
ppp = reduced air pressure
vv = visibility
sd = sunshine duration
rr = precipitation

Next stations